OPS 4682 DEB, 19664

Orbit data source: Space-Track

OPS 4682 DEB, 19664 is space debris in LEO originally from a launch on Sat, 03 Apr 1965 UTC launched from the Air Force Western Test Range (AFWTR). Debris objects in space refer to the collection of defunct objects orbiting the Earth. Examples of debris include non-operational satellites, rocket bodies, and fragments generated from explosions, collisions, or faulty payload assembly.

Loading next visibility...
Identifier
19664, 1965-027AX
Orbit
LEO
Country
Flag of USUS
Related business
Manufacturer
Unknown
Mission
Spacecraft
Bus & Motor
Unknown
Mass
Unknown
Launch date (UTC)
1965-04-03 (61 years ago)
Launch vehicle
Unknown
Launch site
Air Force Western Test Range (AFWTR)
Object type
Payload
Rocket body
Debris
Shape & HBR
Unknown shape, 0.1 m
Radar Cross Section
Small (<0.1 m²)

Expand to show TLE details & history
Last TLE update: 1 day ago

TLE from 1 day ago
0 OPS 4682 DEB
1 19664U 65027AX  26035.36100977  .00001260  00000-0  39391-2 0  9991
2 19664  90.2313 354.7613 0023836 177.0281 336.2503 13.03779309 39223
Epoch: 2026-02-04T08:39Z
TLE epoch observation values (Epoch: 2026-02-04T08:39:51.244Z)
Latitude
26.86527°
Longitude
-89.61434°
Altitude
1,233.964 km
Speed
7.248 km/s
True Right ascension
11h 39m 30s
True Declination
26° 44' 08"
Sunlit
Object was in full shadow at epoch
Visualization orbit readout
Latitude
Unknown
Longitude
Unknown
Altitude
Unknown
Speed
Unknown
Apparent Right ascension
Unknown
Apparent Declination
Unknown
Sunlit
N/A
Visualization observer readout
Local Sidereal Time
15:19:49
Azimuth
Unknown
Elevation
Unknown
Doppler factor
Unknown
Orbital elements
Apogee altitude
1,262.605 km
Perigee altitude
1,226.267 km
Semi-major axis
7,622.573 km
Eccentricity
0.00238
Inclination
90.2313°
RAAN
354.7613°
Arg. of periapsis
177.0281°
True anomaly
336.13999°
Mean anomaly
336.2503°
Eccentric anomaly
336.19518°
Mean motion
3.2613 °/min
Orbital period
110.39 mins
BSTAR
0.0039391
Loading maneuver chart data...
Computing Atmospheric mass density...
Loading historical data...
Loading historical data...
Loading historical data...
Loading historical data...
Loading historical data...
Loading historical data...
Loading historical data...

Documentation

Showing up to 5 results
|